Regional Weather Roundup
Issued by NWS

Home | Current Version | Previous Version | Graphics & Text | Print | Product List | Glossary On
Versions: 1 2 3 4 5 6 7 8 9 10 11 12 13 14 15 16 17 18 19 20 21 22 23 24 25 26 27 28 29 30 31 32 33 34 35 36 37 38 39 40 41 42 43 44 45 46 47 48 49 50
000
ASUS45 KABQ 180710
RWRNM
NEW MEXICO REGIONAL WEATHER ROUNDUP
NATIONAL WEATHER SERVICE ALBUQUERQUE NM
1200 AM MST SAT NOV 18 2017

NOTE: "FAIR" MEANS FEW OR NO CLOUDS BELOW 12,000 FEET AGL WITH NO
       SIGNIFICANT WEATHER OR OBSTRUCTIONS TO VISION.

      THIS PRODUCT IS RELEASED AS TWO VERSIONS.  ONE VERSION NEAR
      THE TOP OF THE HOUR CONTAINING PRELIMINARY DATA FROM ALBUQUERQUE
      AND OTHER STATIONS.  A FINAL VERSION WITH ADDITIONAL DATA IS
      ISSUED ABOUT 10 MINUTES AFTER THE HOUR.

NMZ501-503-504-510>518-180800-
NORTHWEST PLATEAU/NORTHCENTRAL MOUNTAINS

CITY           SKY/WX    TMP DP  RH WIND       PRES   REMARKS
FARMINGTON     FAIR      35  30  82 W18G26    30.12R WCI  24
LOS ALAMOS     FAIR      47  31  54 W29G43    29.97S
SANTA FE       FAIR      48  36  63 W20G28    29.97R
TAOS           FAIR      45  33  63 W22G30    29.95R
ANGEL FIRE     CLOUDY    40  32  74 SW12G35   29.94R WCI  32

$$
NMZ402-403-502-505>509-180800-
WESTCENTRAL MOUNTAINS/SOUTHWEST MOUNTAINS

CITY           SKY/WX    TMP DP  RH WIND       PRES   REMARKS
GALLUP         MOCLDY    44  35  70 W14       30.15R
GRANTS         FAIR      47  33  57 W20G29    30.11R
SILVER CITY    FAIR      53  28  38 NW12      30.10S

$$
NMZ407-409-411-412-180800-
SOUTHERN DESERTS

CITY           SKY/WX    TMP DP  RH WIND       PRES   REMARKS
DEMING         FAIR      51  24  34 SW3       30.08R
LAS CRUCES     FAIR      59  23  25 W12       30.07R
HOLLOMAN AFB   CLOUDY    67  21  17 SW8       30.01R
ALAMOGORDO     FAIR      68  23  18 SW10      30.00S
T OR C         FAIR      59  19  21 SW6       30.01S

$$
NMZ519>523-180800-
CENTRAL VALLEYS/CENTRAL HIGHLANDS

CITY           SKY/WX    TMP DP  RH WIND       PRES   REMARKS
ALBUQUERQUE    FAIR      54  34  46 W12G20    30.01R
MORIARTY ARPT  FAIR      52  35  52 W20G30    30.00R
CLINES CORNERS FAIR      45  32  60 W28G39    29.99S
BELEN          FAIR      54  32  42 W12       30.05R
SOCORRO        FAIR      60  28  29 N7        30.02R

$$
NMZ524>526-539-540-180800-
SOUTHCENTRAL MOUNTAINS

CITY           SKY/WX    TMP DP  RH WIND       PRES   REMARKS
RUIDOSO        FAIR      57  18  21 W16G28    30.03F

$$
NMZ527>531-180800-
NORTHEAST HIGHLANDS/NORTHEAST PLAINS

CITY           SKY/WX    TMP DP  RH WIND       PRES   REMARKS
LAS VEGAS      FAIR      48  30  49 W26G35    29.88R
RATON          FAIR      53  29  39 W29G43    29.80R
CLAYTON        FAIR      54  30  40 W17G31    29.73R

$$
NMZ532>537-180800-
EASTCENTRAL PLAINS

CITY           SKY/WX    TMP DP  RH WIND       PRES   REMARKS
SANTA ROSA     FAIR      59  35  41 W29G38    29.85R
TUCUMCARI      FAIR      62  40  44 W16       29.78R
CANNON AFB     FAIR      60  37  42 W12       29.84R
CLOVIS AIRPORT FAIR      58  37  45 W12       29.83R

$$
NMZ028-029-538-180800-
SOUTHEAST PLAINS

CITY           SKY/WX    TMP DP  RH WIND       PRES   REMARKS
ROSWELL        FAIR      57  25  29 SW9       29.84S
ARTESIA        FAIR      68  25  19 W16       29.84F
CARLSBAD       FAIR      71  24  17 SW13      29.85S
HOBBS          FAIR      57  30  35 W9        29.87S


$$



USA.gov is the U.S. government's official web portal to all federal, state and local government web resources and services.